Weather History for Marion, IN

Change the Weather History Date:

Friday, February 8, 2013

  Actual Average (KMIE) Record (KMIE)
Temperature  
Mean Temperature 33 °F 28 °F  
Max Temperature 62 °F 36 °F 59 °F (2001)
Min Temperature 28 °F 20 °F -4 °F (1978)
Degree Days  
Heating Degree Days 32 37  
Month to date heating degree days 301  
Since 1 July heating degree days 3694  
Cooling Degree Days 0 0  
Month to date cooling degree days 0  
Year to date cooling degree days 0  
Moisture  
Dew Point 27 °F    
Average Humidity 80    
Maximum Humidity 96    
Minimum Humidity 66    
Precipitation  
Precipitation 0.00 in 0.08 in 0.17 in (1969)
Month to date precipitation 0.64  
Year to date precipitation 2.87  
Sea Level Pressure  
Sea Level Pressure 30.11 in    
Wind  
Wind Speed 13 mph (NNW)    
Max Wind Speed 20 mph    
Max Gust Speed 26 mph    
Visibility 9 miles    
Events Rain    
T = Trace of Precipitation, MM = Missing Value Source: NWS Daily Summary

Daily Weather History Graph

Daily Weather History Graph

Search for Another Location

Airport:

Trip Planner

Search our weather history database for the weather conditions in past years. The results will help you decide how hot, cold, wet, or windy it might be!

Date:

Astronomy

Feb. 08, 2013 Rise Set
Actual Time 7:44 AM EST 6:09 PM EST
Civil Twilight 7:16 AM EST 6:38 PM EST
Nautical Twilight 6:43 AM EST 7:10 PM EST
Astronomical Twilight 6:12 AM EST 7:42 PM EST
Moon 6:12 AM EST (2/8) 4:42 PM EST (2/8)
Length of Visible Light 11h 21m
Length of Day
10h 25m
Waning Crescent, 3% of the Moon is Illuminated
Feb 8
Waning Crescent
Feb 10
New
Feb 17
First Quarter
Feb 25
Full
Mar 4
Last Quarter

Hourly Weather History & Observations

Time (EST) Temp. Windchill Dew Point Humidity Pressure Visibility Wind Dir Wind Speed Gust Speed Precip Events Conditions
12:15 AM 38.3 °F 29.0 °F 37.2 °F 96% 29.80 in 2.5 mi West 17.3 mph - N/A   Overcast
12:35 AM 37.9 °F 30.0 °F 36.9 °F 96% 29.81 in 4.0 mi West 12.7 mph - N/A   Overcast
12:55 AM 37.0 °F 28.9 °F 36.0 °F 96% 29.81 in 5.0 mi West 12.7 mph - N/A   Overcast
1:15 AM 36.5 °F 27.4 °F 35.2 °F 95% 29.81 in 5.0 mi WNW 15.0 mph - N/A Rain Light Rain
1:55 AM 35.8 °F 26.9 °F 34.7 °F 96% 29.82 in 3.0 mi WNW 13.8 mph - N/A   Overcast
2:15 AM 35.6 °F 27.1 °F 34.5 °F 96% 29.83 in 4.0 mi WNW 12.7 mph - N/A   Overcast
2:35 AM 35.2 °F 26.6 °F 33.8 °F 94% 29.84 in 4.0 mi WNW 12.7 mph 24.2 mph N/A   Overcast
2:55 AM 34.5 °F 23.4 °F 32.9 °F 94% 29.85 in 3.0 mi WNW 19.6 mph 24.2 mph N/A   Overcast
3:15 AM 33.6 °F 22.2 °F 32.0 °F 94% 29.86 in 5.0 mi WNW 19.6 mph 26.5 mph N/A   Overcast
3:35 AM 33.1 °F 22.6 °F 31.8 °F 95% 29.86 in 7.0 mi NW 16.1 mph 21.9 mph N/A   Overcast
3:55 AM 32.9 °F 23.2 °F 31.5 °F 94% 29.87 in 7.0 mi WNW 13.8 mph - N/A   Overcast
4:35 AM 32.9 °F 23.2 °F 31.5 °F 94% 29.89 in 10.0 mi WNW 13.8 mph 19.6 mph N/A   Overcast
4:55 AM 32.9 °F 22.8 °F 31.5 °F 94% 29.90 in 10.0 mi WNW 15.0 mph 20.7 mph N/A   Overcast
5:15 AM 33.1 °F 23.4 °F 31.5 °F 94% 29.90 in 10.0 mi WNW 13.8 mph 19.6 mph N/A   Overcast
5:35 AM 33.3 °F 22.8 °F 31.1 °F 92% 29.91 in 10.0 mi WNW 16.1 mph 21.9 mph N/A   Overcast
5:55 AM 33.3 °F 23.2 °F 31.1 °F 92% 29.93 in 10.0 mi NW 15.0 mph 20.7 mph N/A   Overcast
6:15 AM 33.4 °F 22.3 °F 30.4 °F 89% 29.93 in 10.0 mi NW 18.4 mph 26.5 mph N/A   Overcast
6:35 AM 33.3 °F 23.2 °F 29.7 °F 87% 29.94 in 10.0 mi NW 15.0 mph 21.9 mph N/A   Overcast
6:55 AM 32.9 °F 21.3 °F 29.3 °F 87% 29.95 in 10.0 mi NW 19.6 mph 26.5 mph N/A   Overcast
7:15 AM 32.7 °F 21.4 °F 28.6 °F 85% 29.96 in 10.0 mi NW 18.4 mph 23.0 mph N/A   Overcast
7:35 AM 32.5 °F 22.3 °F 28.4 °F 85% 29.97 in 10.0 mi NW 15.0 mph - N/A   Overcast
7:55 AM 32.4 °F 22.5 °F 28.4 °F 85% 29.99 in 10.0 mi NNW 13.8 mph 19.6 mph N/A   Overcast
8:15 AM 32.4 °F 22.1 °F 28.0 °F 84% 30.01 in 10.0 mi NNW 15.0 mph 26.5 mph N/A   Overcast
8:35 AM 32.0 °F 21.2 °F 27.0 °F 82% 30.02 in 10.0 mi NNW 16.1 mph 20.7 mph N/A   Overcast
8:55 AM 32.0 °F 22.1 °F 26.6 °F 80% 30.04 in 7.0 mi NNW 13.8 mph 25.3 mph N/A   Overcast
9:15 AM 32.0 °F 23.0 °F 26.4 °F 80% 30.05 in 10.0 mi NNW 11.5 mph 21.9 mph N/A   Overcast
9:35 AM 32.0 °F 21.6 °F 25.3 °F 76% 30.06 in 10.0 mi NNW 15.0 mph 23.0 mph N/A   Overcast
9:55 AM 32.0 °F 22.1 °F 25.0 °F 75% 30.08 in 10.0 mi NNW 13.8 mph 23.0 mph N/A   Overcast
10:15 AM 32.0 °F 21.6 °F 24.6 °F 74% 30.09 in 10.0 mi NNW 15.0 mph 19.6 mph N/A   Overcast
10:35 AM 31.8 °F 21.0 °F 24.6 °F 75% 30.10 in 7.0 mi North 16.1 mph 23.0 mph N/A   Overcast
10:55 AM 31.8 °F 22.3 °F 24.6 °F 75% 30.11 in 10.0 mi NNW 12.7 mph 20.7 mph N/A   Overcast
11:15 AM 32.0 °F 24.8 °F 25.2 °F 76% 30.13 in 10.0 mi North 8.1 mph 17.3 mph N/A   Overcast
11:35 AM 32.0 °F 23.0 °F 25.5 °F 77% 30.14 in 10.0 mi NNW 11.5 mph 16.1 mph N/A   Overcast
11:55 AM 32.0 °F 23.6 °F 25.5 °F 77% 30.15 in 10.0 mi NNW 10.4 mph 16.1 mph N/A   Overcast
12:15 PM 32.0 °F 22.1 °F 25.5 °F 77% 30.16 in 10.0 mi NNW 13.8 mph 19.6 mph N/A   Overcast
12:35 PM 32.0 °F 22.5 °F 25.5 °F 77% 30.16 in 7.0 mi NNW 12.7 mph 16.1 mph N/A   Overcast
12:55 PM 32.4 °F 23.0 °F 25.9 °F 77% 30.15 in 7.0 mi NNW 12.7 mph 16.1 mph N/A   Overcast
1:15 PM 32.9 °F 24.7 °F 26.1 °F 76% 30.15 in 10.0 mi NNW 10.4 mph - N/A   Overcast
1:35 PM 33.1 °F 24.4 °F 26.4 °F 77% 30.16 in 10.0 mi NNW 11.5 mph 17.3 mph N/A   Overcast
1:55 PM 33.4 °F 24.8 °F 26.2 °F 75% 30.17 in 10.0 mi NNW 11.5 mph - N/A   Overcast
2:15 PM 33.3 °F 24.1 °F 25.9 °F 74% 30.17 in 10.0 mi North 12.7 mph - N/A   Overcast
2:35 PM 33.1 °F 23.4 °F 25.5 °F 74% 30.17 in 10.0 mi North 13.8 mph 18.4 mph N/A   Overcast
2:55 PM 33.1 °F 24.4 °F 26.1 °F 75% 30.17 in 10.0 mi North 11.5 mph 16.1 mph N/A   Overcast
3:15 PM 32.9 °F 24.1 °F 26.2 °F 76% 30.18 in 10.0 mi North 11.5 mph 19.6 mph N/A   Overcast
3:35 PM 32.5 °F 22.7 °F 25.0 °F 74% 30.19 in 10.0 mi North 13.8 mph 21.9 mph N/A   Overcast
3:55 PM 32.0 °F 21.6 °F 24.1 °F 73% 30.21 in 7.0 mi North 15.0 mph 20.7 mph N/A   Overcast
4:15 PM 32.0 °F 24.2 °F 23.9 °F 72% 30.21 in 10.0 mi North 9.2 mph 18.4 mph N/A   Overcast
4:35 PM 32.0 °F 23.6 °F 23.9 °F 72% 30.22 in 10.0 mi North 10.4 mph - N/A   Overcast
4:55 PM 32.0 °F 24.8 °F 23.5 °F 71% 30.23 in 10.0 mi North 8.1 mph - N/A   Mostly Cloudy
5:15 PM 31.6 °F 23.7 °F 23.2 °F 71% 30.24 in 10.0 mi North 9.2 mph - N/A   Scattered Clouds
5:35 PM 31.8 °F 25.4 °F 23.5 °F 71% 30.24 in 10.0 mi North 6.9 mph - N/A   Scattered Clouds
5:55 PM 31.6 °F 24.4 °F 23.7 °F 73% 30.24 in 10.0 mi North 8.1 mph - N/A   Scattered Clouds
6:35 PM 31.1 °F 24.5 °F 23.5 °F 74% 30.27 in 10.0 mi North 6.9 mph - N/A   Scattered Clouds
6:55 PM 30.7 °F 24.9 °F 23.5 °F 75% 30.28 in 10.0 mi North 5.8 mph - N/A   Scattered Clouds
7:15 PM 30.4 °F 23.6 °F 23.4 °F 75% 30.30 in 10.0 mi North 6.9 mph - N/A   Mostly Cloudy
7:35 PM 30.2 °F 25.4 °F 23.0 °F 75% 30.31 in 10.0 mi North 4.6 mph - N/A   Mostly Cloudy
7:55 PM 30.2 °F 24.3 °F 23.2 °F 75% 30.31 in 10.0 mi North 5.8 mph - N/A   Overcast
8:15 PM 30.2 °F 23.4 °F 23.2 °F 75% 30.32 in 7.0 mi North 6.9 mph - N/A   Overcast
8:35 PM 30.2 °F 22.6 °F 23.0 °F 75% 30.32 in 10.0 mi North 8.1 mph - N/A   Overcast
8:55 PM 30.2 °F 21.9 °F 22.1 °F 72% 30.32 in 10.0 mi NNW 9.2 mph - N/A   Overcast
9:15 PM 30.6 °F 23.1 °F 20.3 °F 66% 30.32 in 10.0 mi North 8.1 mph - N/A   Overcast
9:35 PM 30.4 °F 24.5 °F 20.8 °F 68% 30.33 in 10.0 mi North 5.8 mph - N/A   Overcast
9:55 PM 30.2 °F 23.4 °F 21.0 °F 69% 30.34 in 10.0 mi North 6.9 mph - N/A   Overcast
10:15 PM 30.2 °F 24.3 °F 21.4 °F 70% 30.34 in 10.0 mi ENE 5.8 mph - N/A   Overcast
10:35 PM 29.7 °F 24.7 °F 22.1 °F 73% 30.33 in 10.0 mi NNE 4.6 mph - N/A   Overcast
10:55 PM 29.3 °F 24.3 °F 21.2 °F 72% 30.34 in 10.0 mi NNE 4.6 mph - N/A   Overcast
11:15 PM 28.9 °F 23.9 °F 20.7 °F 71% 30.34 in 10.0 mi NNE 4.6 mph - N/A   Scattered Clouds
11:35 PM 28.4 °F 24.6 °F 20.8 °F 73% 30.34 in 10.0 mi North 3.5 mph - N/A   Scattered Clouds
11:55 PM 28.4 °F 24.6 °F 20.7 °F 73% 30.35 in 10.0 mi North 3.5 mph - N/A   Scattered Clouds